DW1695 Weather Reports


Display with metric or nautical units.
time (UTC)temp
F
wind
direction
speed
MPH
gust
MPH
rain 1hr
in
rain 24hr
in
rain mn
in
humidity
%
barometer
mb
20260506014004 50 316 0.0 2.0 0.14 0.48 0.48 96 1010.0
20260506013504 50 320 1.0 2.0 0.12 0.45 0.45 96 1009.7
20260506013003 50 322 0.0 3.0 0.08 0.40 0.40 96 1009.5
20260506012503 50 325 1.0 3.0 0.06 0.38 0.38 96 1009.4
20260506012003 50 359 0.0 3.0 0.06 0.37 0.37 96 1009.2
20260506010503 50 15 2.0 3.0 0.08 0.35 0.35 96 1008.9
20260506005505 50 31 1.0 3.0 0.09 0.35 0.35 96 1009.1
20260506005003 50 317 2.0 3.0 0.10 0.35 0.35 96 1009.6
20260506004504 50 56 0.0 2.0 0.10 0.34 0.34 96 1009.5
20260506004004 50 49 2.0 3.0 0.12 0.34 0.34 96 1009.2
20260506003504 50 203 1.0 3.0 0.12 0.33 0.33 96 1009.7
20260506003003 50 304 1.0 3.0 0.11 0.32 0.32 96 1009.7
20260506002504 50 275 0.0 2.0 0.11 0.32 0.32 96 1009.5
20260506001504 50 274 1.0 2.0 0.10 0.31 0.31 96 1009.5
20260506001004 50 271 0.0 3.0 0.09 0.29 0.29 96 1009.6
20260506000503 50 270 0.0 2.0 0.07 0.27 0.27 96 1009.5
20260506000003 50 271 1.0 2.0 0.06 0.26 0.26 96 1009.3
20260505235503 50 278 1.0 3.0 0.09 0.26 0.26 95 1009.0
20260505235004 50 339 1.0 3.0 0.10 0.25 0.25 95 1009.2
20260505234503 50 293 0.0 5.0 0.10 0.24 0.24 95 1009.1
20260505234004 51 358 2.0 5.0 0.09 0.22 0.22 95 1009.2
20260505233504 51 328 1.0 3.0 0.10 0.21 0.21 95 1009.1
20260505233004 51 342 1.0 3.0 0.11 0.21 0.21 95 1008.9
20260505232503 51 265 2.0 3.0 0.12 0.21 0.21 95 1009.3
20260505231003 51 288 5.0 8.0 0.11 0.20 0.20 94 1009.0
20260505230504 51 343 2.0 6.0 0.11 0.20 0.20 95 1009.0
20260505225504 52 338 3.0 6.0 0.08 0.17 0.17 94 1009.0
20260505225003 52 311 3.0 7.0 0.06 0.15 0.15 94 1008.9
20260505224503 53 325 2.0 6.0 0.05 0.14 0.14 94 1009.0
20260505224004 53 321 4.0 8.0 0.04 0.13 0.13 94 1009.0
20260505223503 53 318 1.0 5.0 0.02 0.11 0.11 94 1009.1
20260505223003 53 285 3.0 5.0 0.02 0.10 0.10 94 1009.0
20260505222504 54 310 3.0 5.0 0.02 0.09 0.09 93 1009.0
20260505222003 54 316 3.0 6.0 0.04 0.09 0.09 93 1008.9
20260505221504 54 302 2.0 6.0 0.06 0.09 0.09 93 1008.8
20260505221004 55 329 2.0 8.0 0.07 0.09 0.09 93 1008.7
20260505220503 55 302 2.0 5.0 0.07 0.09 0.09 93 1008.7
20260505220003 55 299 3.0 5.0 0.07 0.09 0.09 92 1008.7
20260505215505 55 301 3.0 6.0 0.07 0.09 0.09 92 1008.8
20260505215003 55 291 1.0 3.0 0.07 0.09 0.09 92 1008.8
20260505214504 55 286 2.0 5.0 0.07 0.09 0.09 91 1008.8
20260505214003 56 287 4.0 8.0 0.07 0.09 0.09 90 1008.8
20260505213503 56 304 3.0 10.0 0.07 0.09 0.09 90 1008.7
20260505213004 56 301 2.0 6.0 0.06 0.08 0.08 89 1008.7
20260505212503 57 273 2.0 6.0 0.05 0.07 0.07 87 1008.6
20260505212004 57 286 3.0 9.0 0.03 0.05 0.05 85 1008.6
20260505211504 58 274 5.0 8.0 0.01 0.03 0.03 82 1008.5
20260505210504 60 296 4.0 8.0 0.00 0.02 0.02 79 1008.0
20260505210005 60 294 3.0 7.0 0.00 0.02 0.02 78 1007.8
20260505205503 60 314 3.0 6.0 0.00 0.02 0.02 79 1007.9
20260505205004 60 276 3.0 7.0 0.00 0.02 0.02 78 1007.8
20260505204504 60 303 1.0 5.0 0.00 0.02 0.02 78 1007.8
20260505204003 60 292 3.0 8.0 0.00 0.02 0.02 78 1007.8
20260505203504 61 211 5.0 7.0 0.00 0.02 0.02 77 1007.8
20260505202504 61 305 5.0 12.0 0.00 0.02 0.02 77 1007.8
20260505202004 61 285 3.0 9.0 0.00 0.02 0.02 77 1008.0
20260505201504 61 260 3.0 8.0 0.00 0.02 0.02 76 1008.0
20260505201003 61 285 5.0 12.0 0.00 0.02 0.02 76 1008.1
20260505200503 61 303 5.0 8.0 0.00 0.02 0.02 76 1008.1
20260505195504 61 287 2.0 10.0 0.00 0.02 0.02 76 1008.3
20260505195004 61 269 4.0 12.0 0.00 0.02 0.02 75 1008.2
20260505194503 62 228 4.0 10.0 0.00 0.02 0.02 75 1008.2
20260505194003 62 309 2.0 9.0 0.00 0.02 0.02 76 1008.2
20260505193503 61 309 5.0 8.0 0.00 0.02 0.02 76 1008.0
20260505193003 61 291 3.0 6.0 0.00 0.02 0.02 75 1008.1
20260505192503 61 303 3.0 10.0 0.00 0.02 0.02 75 1008.2
20260505192004 61 283 1.0 3.0 0.00 0.02 0.02 75 1008.0
20260505191504 62 307 3.0 9.0 0.00 0.02 0.02 74 1008.1
20260505191004 62 312 4.0 7.0 0.00 0.02 0.02 73 1008.2
20260505190503 63 320 3.0 6.0 0.00 0.02 0.02 72 1008.1
20260505185503 64 318 3.0 6.0 0.00 0.02 0.02 71 1008.0
20260505185003 65 333 3.0 8.0 0.00 0.02 0.02 68 1007.9
20260505184505 66 298 5.0 10.0 0.00 0.02 0.02 66 1007.9
20260505184003 67 207 2.0 7.0 0.00 0.02 0.02 64 1007.8
20260505183503 67 88 2.0 7.0 0.00 0.02 0.02 65 1007.6
20260505183003 67 204 2.0 9.0 0.00 0.02 0.02 64 1007.5
20260505182505 67 238 2.0 6.0 0.00 0.02 0.02 63 1007.5
20260505182004 68 187 5.0 13.0 0.00 0.02 0.02 62 1007.5
20260505181505 68 250 3.0 12.0 0.00 0.02 0.02 64 1007.5
20260505181004 67 311 2.0 8.0 0.00 0.02 0.02 66 1007.5
20260505180504 67 233 3.0 7.0 0.00 0.02 0.02 66 1007.4
20260505175003 66 211 1.0 7.0 0.00 0.02 0.02 66 1007.3
20260505174504 65 238 3.0 6.0 0.00 0.02 0.02 65 1007.3
20260505174004 66 216 3.0 12.0 0.00 0.02 0.02 65 1007.4
20260505173504 65 173 3.0 7.0 0.00 0.02 0.02 67 1007.3
20260505173004 65 180 4.0 10.0 0.00 0.02 0.02 66 1007.3
20260505172504 66 203 5.0 7.0 0.00 0.02 0.02 66 1007.3
20260505172004 66 218 2.0 6.0 0.00 0.02 0.02 65 1007.3
20260505171503 67 285 5.0 13.0 0.00 0.02 0.02 64 1007.3
20260505170503 67 268 3.0 8.0 0.00 0.02 0.02 65 1007.2
20260505165503 68 221 5.0 10.0 0.00 0.02 0.02 64 1006.9
20260505165004 68 252 6.0 12.0 0.00 0.02 0.02 65 1006.7
20260505164504 68 153 6.0 15.0 0.00 0.02 0.02 65 1006.6
20260505163503 67 182 5.0 9.0 0.00 0.02 0.02 69 1006.4
20260505163004 65 264 4.0 12.0 0.00 0.02 0.02 69 1006.7
20260505162505 65 239 5.0 13.0 0.00 0.02 0.02 70 1006.8
20260505162003 65 328 4.0 9.0 0.00 0.02 0.02 69 1007.0
20260505161503 65 165 4.0 12.0 0.00 0.02 0.02 69 1007.4
20260505161004 66 237 5.0 14.0 0.00 0.02 0.02 68 1007.3
20260505160504 66 185 4.0 14.0 0.00 0.02 0.02 69 1007.3
20260505153003 63 295 7.0 20.0 0.00 0.02 0.02 72 1007.4
20260505152003 63 245 5.0 14.0 0.00 0.02 0.02 73 1007.3
20260505151003 63 183 6.0 12.0 0.00 0.02 0.02 74 1007.1
20260505150503 63 211 6.0 17.0 0.00 0.02 0.02 73 1006.9
20260505140504 63 136 3.0 9.0 0.00 0.02 0.02 72 1006.6
20260505125003 63 151 5.0 12.0 0.00 0.02 0.02 71 1006.0
20260505124504 63 181 4.0 13.0 0.00 0.02 0.02 71 1006.0
20260505124005 63 214 3.0 12.0 0.00 0.02 0.02 71 1006.0
20260505123503 63 184 5.0 14.0 0.00 0.02 0.02 71 1006.0
20260505123005 63 166 3.0 13.0 0.00 0.02 0.02 71 1006.0
20260505122504 63 176 6.0 10.0 0.00 0.02 0.02 71 1005.9
20260505122004 63 163 3.0 8.0 0.00 0.02 0.02 71 1005.9
20260505121503 63 157 4.0 12.0 0.00 0.02 0.02 71 1005.7
20260505120503 63 139 3.0 9.0 0.00 0.02 0.02 71 1005.7
20260505115503 63 190 5.0 8.0 0.00 0.02 0.02 71 1005.8
20260505115003 63 159 5.0 15.0 0.00 0.02 0.02 71 1005.7
20260505114503 63 130 3.0 9.0 0.00 0.02 0.02 71 1005.7
20260505114002 63 161 3.0 9.0 0.00 0.02 0.02 71 1005.5
20260505113502 63 173 3.0 12.0 0.00 0.02 0.02 71 1005.5
20260505113004 63 167 3.0 7.0 0.00 0.02 0.02 71 1005.5
20260505112003 62 200 4.0 10.0 0.00 0.02 0.02 72 1005.2
20260505111503 62 155 3.0 7.0 0.00 0.02 0.02 72 1005.2
20260505111003 62 198 4.0 12.0 0.00 0.02 0.02 71 1005.1
20260505110503 62 175 3.0 12.0 0.00 0.02 0.02 72 1005.1
20260505102004 61 144 3.0 12.0 0.00 0.02 0.02 72 1004.7
20260505101503 61 151 3.0 7.0 0.00 0.02 0.02 72 1004.8
20260505100003 62 165 3.0 7.0 0.00 0.02 0.02 72 1004.6
20260505095003 62 184 4.0 7.0 0.00 0.02 0.02 73 1004.6
20260505094502 62 163 5.0 12.0 0.00 0.02 0.02 73 1004.5
20260505094003 61 141 3.0 8.0 0.00 0.02 0.02 73 1004.6
20260505093503 61 140 3.0 9.0 0.00 0.02 0.02 73 1004.7
20260505093003 61 151 2.0 9.0 0.00 0.02 0.02 74 1004.6
20260505092503 61 218 5.0 13.0 0.00 0.02 0.02 74 1004.6
20260505092002 61 140 4.0 9.0 0.00 0.02 0.02 75 1004.6
20260505091503 61 161 4.0 9.0 0.00 0.02 0.02 75 1004.6
20260505091002 61 132 2.0 13.0 0.00 0.02 0.02 75 1004.5
20260505090003 61 166 3.0 7.0 0.00 0.02 0.02 74 1004.6
20260505085504 61 149 4.0 12.0 0.00 0.02 0.02 74 1004.6
20260505085003 62 149 2.0 9.0 0.00 0.02 0.02 74 1004.4
20260505084504 62 162 7.0 12.0 0.00 0.02 0.02 74 1004.2
20260505084003 62 148 3.0 12.0 0.00 0.02 0.02 74 1004.3
20260505083504 61 154 5.0 14.0 0.00 0.02 0.02 75 1004.4
20260505083003 61 145 6.0 14.0 0.00 0.02 0.02 76 1004.4
20260505082503 61 145 4.0 12.0 0.00 0.02 0.02 76 1004.3
20260505082004 60 156 3.0 12.0 0.00 0.02 0.02 77 1004.3
20260505081502 60 148 3.0 9.0 0.00 0.02 0.02 77 1004.3
20260505081003 60 174 3.0 8.0 0.00 0.02 0.02 78 1004.3
20260505080503 60 164 3.0 9.0 0.00 0.02 0.02 78 1004.3
20260505080004 60 159 3.0 6.0 0.00 0.02 0.02 78 1004.4
20260505075004 59 152 3.0 10.0 0.00 0.02 0.02 80 1004.4
20260505074503 59 123 4.0 9.0 0.00 0.02 0.02 81 1004.3
20260505074003 59 142 3.0 8.0 0.00 0.02 0.02 81 1004.3
20260505073503 58 146 3.0 8.0 0.00 0.02 0.02 81 1004.3
20260505073003 59 148 2.0 6.0 0.00 0.02 0.02 81 1004.3
20260505072003 59 190 3.0 6.0 0.00 0.02 0.02 79 1004.4
20260505071003 60 146 3.0 9.0 0.00 0.02 0.02 78 1004.4
20260505070503 60 190 5.0 10.0 0.00 0.02 0.02 76 1004.3
20260505070003 61 199 6.0 12.0 0.00 0.02 0.02 73 1004.2
20260505065003 63 187 6.0 14.0 0.00 0.02 0.02 69 1005.2
20260505064502 63 178 5.0 12.0 0.00 0.02 0.02 70 1005.1
20260505064003 63 216 5.0 10.0 0.00 0.02 0.02 70 1005.1
20260505062504 62 237 2.0 7.0 0.00 0.02 0.02 72 1004.9
20260505062003 62 174 3.0 6.0 0.00 0.02 0.02 72 1004.8
20260505061504 62 135 4.0 9.0 0.00 0.02 0.02 72 1004.7
20260505061004 62 136 4.0 8.0 0.00 0.02 0.02 72 1004.7
20260505060504 62 141 3.0 10.0 0.00 0.02 0.02 72 1004.8
20260505060003 62 179 3.0 7.0 0.00 0.02 0.02 72 1004.9
20260505055503 62 158 2.0 7.0 0.00 0.02 0.02 72 1005.0
20260505055003 61 135 5.0 9.0 0.00 0.02 0.02 72 1005.0
20260505054505 61 197 2.0 7.0 0.00 0.02 0.02 72 1005.1
20260505054003 61 211 3.0 6.0 0.00 0.02 0.02 73 1005.2
20260505053503 61 116 2.0 6.0 0.00 0.02 0.02 73 1005.2
20260505053003 61 206 3.0 8.0 0.00 0.02 0.02 73 1005.2
20260505052503 61 143 1.0 6.0 0.00 0.02 0.02 74 1005.3
20260505052004 61 221 1.0 7.0 0.02 0.02 0.02 74 1005.3
20260505051504 61 337 1.0 3.0 0.02 0.02 0.02 74 1005.5
20260505051003 61 311 1.0 5.0 0.02 0.02 0.02 74 1005.6
20260505050505 61 302 3.0 7.0 0.02 0.02 0.02 74 1005.7
20260505041504 63 167 3.0 9.0 0.00 0.00 0.00 68 1005.6
20260505041003 63 268 3.0 8.0 0.00 0.00 0.00 68 1005.6
20260505040504 63 205 3.0 6.0 0.00 0.00 0.00 68 1005.5
20260505040004 63 160 4.0 10.0 0.00 0.00 0.00 68 1005.5
20260505035504 63 173 3.0 8.0 0.00 0.00 0.00 68 1005.6
20260505034503 63 190 3.0 8.0 0.00 0.00 0.00 67 1005.4
20260505033503 63 138 4.0 8.0 0.00 0.00 0.00 67 1005.5
20260505033003 63 172 3.0 9.0 0.00 0.00 0.00 68 1005.5
20260505031003 63 187 5.0 10.0 0.00 0.00 0.00 68 1005.6
20260505030503 63 135 4.0 12.0 0.00 0.00 0.00 68 1005.7
20260505030004 63 151 2.0 8.0 0.00 0.00 0.00 68 1005.7
20260505025504 63 149 3.0 7.0 0.00 0.00 0.00 68 1005.7
20260505025004 63 157 3.0 7.0 0.00 0.00 0.00 68 1005.7
20260505024003 63 205 3.0 9.0 0.00 0.00 0.00 69 1005.7
20260505023004 61 145 2.0 7.0 0.00 0.00 0.00 73 1005.8
20260505022504 60 180 1.0 3.0 0.00 0.00 0.00 75 1005.8
20260505022004 60 181 2.0 3.0 0.00 0.00 0.00 75 1005.8
20260505021503 61 288 0.0 2.0 0.00 0.00 0.00 74 1005.9
20260505021003 61 288 2.0 3.0 0.00 0.00 0.00 73 1005.9
20260505020504 62 338 0.0 8.0 0.00 0.00 0.00 72 1006.0
20260505020004 63 348 2.0 8.0 0.00 0.00 0.00 69 1006.2
20260505015503 63 333 3.0 7.0 0.00 0.00 0.00 65 1006.2
20260505015003 63 230 2.0 5.0 0.00 0.00 0.00 65 1005.7
20260505014504 63 153 2.0 7.0 0.00 0.00 0.00 65 1005.5